Home   Weather   Wuhan   Past weeks

Flag for China Past Weather in Wuhan, Hubei, China — Yesterday and Last 2 Weeks

Now
66 °F

Haze.


Feels Like: 66 °F
Forecast: 63 / 84 °F
Wind: 10 mph from Southeast

Location: Wuhan Airport

Current Time: Apr 30, 2017 at 7:38:04 am

Latest Report: Apr 30, 2017 at 7:00 am


Visibility: 2 mi

Pressure: 29.80 "Hg

Humidity: 73%

Dew Point: 57 °F

Location of WuhanLocation

Past Weather in Wuhan — Graph

°F

Wuhan Temperature Yesterday

Maximum temperature yesterday: 82 °F (at 2:00 pm)
Minimum temperature yesterday: 55 °F (at 5:00 am)
Average temperature yesterday: 70 °F

High & Low Weather Summary for the Past Weeks

 TemperatureHumidityPressure
High86 °F (Apr 15, 3:00 pm)100% (Apr 29, 5:00 am)30.18 "Hg (Apr 29, 5:00 am)
Low54 °F (Apr 22, 5:00 am)27% (Apr 27, 3:00 pm)29.59 "Hg (Apr 19, 4:00 pm)
Average67 °F68%29.90 "Hg
* Reported Apr 15 6:00 am — Apr 30 6:00 am, Wuhan, Weather by CustomWeather, © 2017

Note: Actual official high and low records may vary slightly from our data, if they occured in-between our weather recording intervals... More about our weather records

Advertising

Wuhan Weather History for the Previous 24 Hours

Scroll right to see more
 ConditionsComfort  
Time TempWeatherWind HumidityBarometerVisibility
6:00 am
Sun, Apr 30
64 °FHaze.6 mph73%29.80 "Hg3 mi
5:00 am64 °FClear.8 mph73%29.80 "Hg10 mi
4:00 am61 °FClear.3 mph77%29.80 "Hg10 mi
3:00 am61 °FClear.1 mph83%29.80 "Hg10 mi
2:00 am63 °FClear.No wind77%29.80 "Hg10 mi
1:00 am64 °FClear.3 mph78%29.80 "Hg10 mi
12:00 am70 °FClear.3 mph53%29.83 "Hg10 mi
11:00 pm
Sat, Apr 29
72 °FClear.3 mph53%29.83 "Hg10 mi
10:00 pm70 °FClear.3 mph50%29.83 "Hg10 mi
9:00 pm70 °FClear.1 mph53%29.83 "Hg10 mi
8:00 pm72 °FClear.3 mph57%29.83 "Hg10 mi
7:00 pm73 °FClear.3 mph53%29.80 "Hg10 mi
6:00 pm79 °FSunny.6 mph42%29.80 "Hg10 mi
5:00 pm82 °FSunny.8 mph30%29.80 "Hg10 mi
4:00 pm82 °FSunny.8 mph35%29.83 "Hg10 mi
3:00 pm82 °FSunny.8 mph32%29.83 "Hg10 mi
2:00 pm82 °FPassing clouds.6 mph32%29.86 "HgN/A
1:00 pm81 °FSunny.10 mph34%29.89 "Hg10 mi
12:00 pm79 °FPassing clouds.8 mph42%29.92 "HgN/A
11:00 am75 °FPassing clouds.8 mph47%29.92 "HgN/A
10:00 am73 °FSunny.8 mph50%29.95 "Hg10 mi
9:00 am72 °FPassing clouds.6 mph50%29.95 "HgN/A
8:00 am68 °FSunny.3 mph56%29.95 "Hg10 mi
7:00 am64 °FSunny.1 mph68%29.92 "Hg10 mi
Weather by CustomWeather, © 2017

See weather overviewHow to use our weather pages